Terug naar catalogus

COSMOS 1722

ActiefMilitairLEO
NORAD 16455·PAYLOAD·🇷🇺 Russia

Gelanceerd Jan 9, 1986 vanaf Plesetsk Cosmodrome

Loading…

Volgende Passages (komende 24 uur)

TLE

VersSource: Space-Track

Epoch: Sep 14, 2026, 15:24 UTC

1 16455U 86002G   26257.64183927 -.00000016  00000-0 -72500-6 0  9998
2 16455  73.9922  17.9496 0045972   3.1876  10.7803 12.54043721862276

Volg COSMOS 1722 in realtime met AllMySat

Download on the App Store